Regional Weather Roundup
Issued by NWS

Home | Current Version | Previous Version | Graphics & Text | Print | Product List | Glossary On
Versions: 1 2 3 4 5 6 7 8 9 10 11 12 13 14 15 16 17 18 19 20 21 22 23 24 25 26 27
000
ASUS45 KCYS 261310
RWRWY

WYOMING REGIONAL WEATHER ROUNDUP
NATIONAL WEATHER SERVICE CHEYENNE WY
700 AM MDT FRI AUG 26 2016

NOTE:  "FAIR" INDICATES FEW OR NO CLOUDS BELOW 12,000 FEET
WITH NO SIGNIFICANT WEATHER AND/OR OBSTRUCTIONS TO VISIBILITY.

WYZ001-261400-
YELLOWSTONE NATIONAL PARK

CITY           SKY/WX    TMP DP  RH WIND       PRES   REMARKS
LK YELLOWSTONE   N/A     40  39  97 CALM      30.26F
W YELLOWSTONE  NOT AVBL

$$
WYZ002>013-054>058-071-098>099-261400-
NORTHERN WYOMING

CITY           SKY/WX    TMP DP  RH WIND       PRES   REMARKS
JACKSON        PTCLDY    37  34  87 MISG      30.21S
CODY           FAIR      48  43  81 CALM      30.15R
GREYBULL       FAIR      50  46  86 CALM      30.11S
WORLAND        FAIR      47  45  93 S7        30.12R
SHERIDAN       FAIR      46  42  86 S6        30.10S
BUFFALO        FAIR      50  41  71 W9        30.14R
GILLETTE       FAIR      50  48  93 S12       30.13R
HULETT         FAIR      50  45  81 CALM      30.14S
NEWCASTLE      FAIR      52  43  71 E6        30.15R

$$
WYZ014>020-022>026-101>103-261400-
CENTRAL WYOMING

CITY           SKY/WX    TMP DP  RH WIND       PRES   REMARKS
BIG PINEY      FAIR      30  28  92 CALM      30.24R
PINEDALE       FAIR      28  28 100 W6        30.25S WCI  22
DUBOIS         FAIR      36  32  87 NW3       30.21F
LANDER         FAIR      45  38  76 SW8       30.16S
RIVERTON       FAIR      44  41  89 NW10      30.17S
CASPER         FAIR      47  45  93 SW5       30.16R
DOUGLAS        FAIR      46  45  96 N5        30.16R

$$
WYZ021-027>030-104>119-261400-
SOUTHERN WYOMING

CITY           SKY/WX    TMP DP  RH WIND       PRES   REMARKS
EVANSTON       FAIR      48  30  49 SE5       30.20R
FORT BRIDGER   FAIR      42  32  69 W3        30.24R
ROCK SPRINGS   FAIR      45  37  73 N5        30.20R
DIXON          FAIR      40  34  78 SE3       30.26S
RAWLINS        FAIR      40  35  83 E3        30.22R
SARATOGA       FAIR      36  36 100 S5        30.25S WCI  32
LARAMIE        FAIR      42  40  92 W3        30.23S
CHEYENNE       CLOUDY    53  47  79 CALM      30.20S
TORRINGTON     CLOUDY    53  51  93 CALM      30.12S
PINE BLUFFS    DRIZZLE   50  48  93 CALM      30.19R

$$




USA.gov is the U.S. government's official web portal to all federal, state and local government web resources and services.